Weather History for Waycross, GA

Change the Weather History Date:

Friday, January 11, 2013

  Actual Average (KAMG) Record (KAMG)
Temperature  
Mean Temperature 68 °F 50 °F  
Max Temperature 80 °F 61 °F 82 °F (1949)
Min Temperature 57 °F 39 °F 11 °F (1982)
Degree Days  
Heating Degree Days 0 15  
Month to date heating degree days 165  
Since 1 July heating degree days 805  
Cooling Degree Days 4 0  
Month to date cooling degree days 0  
Year to date cooling degree days 0  
Growing Degree Days 18 (Base 50)    
Moisture  
Dew Point 62 °F    
Average Humidity 85    
Maximum Humidity 100    
Minimum Humidity 54    
Precipitation  
Precipitation 0.00 in 0.14 in 2.70 in (1991)
Month to date precipitation 1.41  
Year to date precipitation 1.41  
Snow  
Snow 0.00 in 0.00 in 0.00 in ()
Month to date snowfall 0.0  
Since 1 July snowfall 0.1  
Snow Depth -    
Sea Level Pressure  
Sea Level Pressure 30.21 in    
Wind  
Wind Speed 4 mph (South)    
Max Wind Speed 13 mph    
Max Gust Speed 18 mph    
Visibility 7 miles    
Events      
T = Trace of Precipitation, MM = Missing Value Source: NWS Daily Summary

Daily Weather History Graph

Daily Weather History Graph

Search for Another Location

Airport:

Trip Planner

Search our weather history database for the weather conditions in past years. The results will help you decide how hot, cold, wet, or windy it might be!

Date:

Astronomy

Jan. 11, 2013 Rise Set
Actual Time 7:29 AM EST 5:46 PM EST
Civil Twilight 7:02 AM EST 6:12 PM EST
Nautical Twilight 6:33 AM EST 6:42 PM EST
Astronomical Twilight 6:03 AM EST 7:11 PM EST
Moon 7:03 AM EST (1/11) 5:59 PM EST (1/11)
Length of Visible Light 11h 09m
Length of Day
10h 17m
Waning Crescent, 0% of the Moon is Illuminated
Jan 11
Waning Crescent
Jan 11
New
Jan 18
First Quarter
Jan 26
Full
Feb 3
Last Quarter

Hourly Weather History & Observations

Time (EST) Temp. Heat Index Dew Point Humidity Pressure Visibility Wind Dir Wind Speed Gust Speed Precip Events Conditions
12:15 AM 64.4 °F - 64.4 °F 100% 30.28 in 5.0 mi ESE 5.8 mph - N/A   Overcast
12:35 AM 64.4 °F - 64.4 °F 100% 30.27 in 5.0 mi SE 4.6 mph - N/A   Overcast
12:55 AM 62.6 °F - 62.6 °F 100% 30.27 in 4.0 mi ESE 5.8 mph - N/A   Scattered Clouds
1:15 AM 62.6 °F - 62.6 °F 100% 30.27 in 2.5 mi ESE 3.5 mph - N/A   Mostly Cloudy
1:35 AM 62.6 °F - 62.6 °F 100% 30.27 in 1.8 mi Calm Calm - N/A   Mostly Cloudy
1:55 AM 62.6 °F - 62.6 °F 100% 30.27 in 0.5 mi Calm Calm - N/A   Mostly Cloudy
2:15 AM 62.6 °F - 62.6 °F 100% 30.26 in 2.5 mi ESE 4.6 mph - N/A   Scattered Clouds
2:35 AM 62.6 °F - 62.6 °F 100% 30.25 in 5.0 mi SE 4.6 mph - N/A   Clear
2:55 AM 62.6 °F - 62.6 °F 100% 30.25 in 5.0 mi Calm Calm - N/A   Clear
3:15 AM 62.6 °F - 62.6 °F 100% 30.25 in 4.0 mi ESE 3.5 mph - N/A   Clear
3:35 AM 60.8 °F - 60.8 °F 100% 30.24 in 0.8 mi Calm Calm - N/A   Unknown
3:55 AM 60.8 °F - 60.8 °F 100% 30.24 in 0.2 mi Calm Calm - N/A   Overcast
4:15 AM 57.2 °F - 57.2 °F 100% 30.23 in 0.2 mi Calm Calm - N/A   Overcast
4:35 AM 57.2 °F - 57.2 °F 100% 30.23 in 0.2 mi Calm Calm - N/A   Overcast
4:55 AM 57.2 °F - 57.2 °F 100% 30.23 in 0.2 mi Calm Calm - N/A   Overcast
5:15 AM 57.2 °F - 57.2 °F 100% 30.23 in 0.2 mi Calm Calm - N/A   Overcast
5:35 AM 57.2 °F - 57.2 °F 100% 30.22 in 0.2 mi ESE 3.5 mph - N/A   Overcast
5:55 AM 57.2 °F - 57.2 °F 100% 30.22 in 1.2 mi ESE 3.5 mph - N/A   Overcast
6:15 AM 57.2 °F - 57.2 °F 100% 30.21 in 2.5 mi SE 4.6 mph - N/A   Mostly Cloudy
6:35 AM 60.8 °F - 60.8 °F 100% 30.21 in 2.5 mi SE 5.8 mph - N/A   Scattered Clouds
6:55 AM 62.6 °F - 62.6 °F 100% 30.21 in 7.0 mi SSE 4.6 mph - N/A   Mostly Cloudy
7:15 AM 62.6 °F - 62.6 °F 100% 30.22 in 7.0 mi South 5.8 mph - N/A   Scattered Clouds
7:35 AM 62.6 °F - 62.6 °F 100% 30.21 in 7.0 mi SSE 5.8 mph - N/A   Clear
7:55 AM 62.6 °F - 62.6 °F 100% 30.22 in 10.0 mi SSE 5.8 mph - N/A   Clear
8:15 AM 64.4 °F - 64.4 °F 100% 30.22 in 10.0 mi SSE 8.1 mph - N/A   Clear
8:35 AM 64.4 °F - 64.4 °F 100% 30.22 in 10.0 mi South 8.1 mph - N/A   Clear
8:55 AM 64.4 °F - 64.4 °F 100% 30.24 in 10.0 mi South 9.2 mph - N/A   Clear
9:15 AM 66.2 °F - 66.2 °F 100% 30.24 in 10.0 mi South 6.9 mph - N/A   Clear
9:35 AM 69.8 °F - 64.4 °F 83% 30.25 in 10.0 mi South 10.4 mph - N/A   Clear
9:55 AM 69.8 °F - 64.4 °F 83% 30.25 in 10.0 mi South 10.4 mph - N/A   Clear
10:15 AM 71.6 °F - 66.2 °F 83% 30.25 in 10.0 mi South 9.2 mph - N/A   Clear
10:35 AM 73.4 °F - 64.4 °F 73% 30.25 in 10.0 mi South 12.7 mph - N/A   Clear
10:55 AM 73.4 °F - 64.4 °F 73% 30.25 in 10.0 mi South 10.4 mph 18.4 mph N/A   Clear
11:15 AM 75.2 °F - 64.4 °F 69% 30.24 in 10.0 mi South 8.1 mph - N/A   Clear
11:35 AM 75.2 °F - 64.4 °F 69% 30.23 in 10.0 mi SSW 10.4 mph - N/A   Clear
11:55 AM 77.0 °F - 64.4 °F 65% 30.22 in 10.0 mi SW 9.2 mph - N/A   Clear
12:15 PM 78.8 °F - 64.4 °F 61% 30.22 in 10.0 mi South 9.2 mph - N/A   Clear
12:35 PM 78.8 °F - 62.6 °F 57% 30.21 in 10.0 mi SW 10.4 mph - N/A   Scattered Clouds
12:55 PM 78.8 °F - 62.6 °F 57% 30.20 in 10.0 mi SW 10.4 mph - N/A   Scattered Clouds
1:15 PM 78.8 °F - 60.8 °F 54% 30.19 in 10.0 mi SSW 9.2 mph - N/A   Scattered Clouds
1:35 PM 80.6 °F 81.8 °F 62.6 °F 54% 30.19 in 10.0 mi SW 5.8 mph - N/A   Scattered Clouds
1:55 PM 78.8 °F - 62.6 °F 57% 30.18 in 10.0 mi South 6.9 mph - N/A   Mostly Cloudy
2:15 PM 78.8 °F - 62.6 °F 57% 30.18 in 10.0 mi South 5.8 mph - N/A   Mostly Cloudy
2:35 PM 78.8 °F - 62.6 °F 57% 30.18 in 10.0 mi SSW 5.8 mph - N/A   Scattered Clouds
2:55 PM 78.8 °F - 62.6 °F 57% 30.17 in 10.0 mi SW 4.6 mph - N/A   Scattered Clouds
3:15 PM 78.8 °F - 60.8 °F 54% 30.17 in 10.0 mi South 5.8 mph - N/A   Scattered Clouds
3:35 PM 78.8 °F - 60.8 °F 54% 30.17 in 10.0 mi WSW 9.2 mph - N/A   Scattered Clouds
3:55 PM 78.8 °F - 62.6 °F 57% 30.17 in 10.0 mi SSW 6.9 mph - N/A   Scattered Clouds
4:15 PM 78.8 °F - 62.6 °F 57% 30.16 in 10.0 mi SW 8.1 mph - N/A   Scattered Clouds
4:35 PM 78.8 °F - 62.6 °F 57% 30.16 in 10.0 mi SW 8.1 mph - N/A   Clear
4:55 PM 77.0 °F - 62.6 °F 61% 30.16 in 10.0 mi WSW 4.6 mph - N/A   Clear
5:15 PM 75.2 °F - 62.6 °F 65% 30.16 in 10.0 mi SSW 4.6 mph - N/A   Clear
5:35 PM 75.2 °F - 62.6 °F 65% 30.16 in 10.0 mi SSW 3.5 mph - N/A   Clear
5:55 PM 73.4 °F - 60.8 °F 65% 30.16 in 10.0 mi Calm Calm - N/A   Clear
6:15 PM 69.8 °F - 60.8 °F 73% 30.16 in 10.0 mi Calm Calm - N/A   Clear
6:35 PM 66.2 °F - 62.6 °F 88% 30.17 in 10.0 mi Calm Calm - N/A   Clear
6:55 PM 66.2 °F - 62.6 °F 88% 30.17 in 10.0 mi Calm Calm - N/A   Clear
7:15 PM 66.2 °F - 62.6 °F 88% 30.17 in 10.0 mi Calm Calm - N/A   Clear
7:35 PM 64.4 °F - 62.6 °F 94% 30.18 in 10.0 mi Calm Calm - N/A   Clear
7:55 PM 64.4 °F - 60.8 °F 88% 30.18 in 10.0 mi Calm Calm - N/A   Clear
8:15 PM 62.6 °F - 60.8 °F 94% 30.18 in 10.0 mi Calm Calm - N/A   Clear
8:35 PM 62.6 °F - 60.8 °F 94% 30.18 in 10.0 mi Calm Calm - N/A   Clear
8:55 PM 62.6 °F - 60.8 °F 94% 30.18 in 7.0 mi Calm Calm - N/A   Clear
9:15 PM 62.6 °F - 60.8 °F 94% 30.19 in 10.0 mi Calm Calm - N/A   Clear
9:35 PM 62.6 °F - 60.8 °F 94% 30.19 in 10.0 mi West 3.5 mph - N/A   Clear
9:55 PM 60.8 °F - 60.8 °F 100% 30.19 in 10.0 mi Calm Calm - N/A   Clear
10:15 PM 60.8 °F - 57.2 °F 88% 30.19 in 7.0 mi Calm Calm - N/A   Clear
10:35 PM 60.8 °F - 57.2 °F 88% 30.19 in 7.0 mi Calm Calm - N/A   Clear
10:55 PM 57.2 °F - 57.2 °F 100% 30.19 in 7.0 mi Calm Calm - N/A   Clear
11:15 PM 59.0 °F - 57.2 °F 94% 30.19 in 7.0 mi Calm Calm - N/A   Clear
11:35 PM 59.0 °F - 59.0 °F 100% 30.19 in 7.0 mi Calm Calm - N/A   Clear
11:55 PM 59.0 °F - 57.2 °F 94% 30.19 in 7.0 mi Calm Calm - N/A   Clear